VLG5BP LEZL-LEBB

Flight info

Callsign VLG5BP
Flight time N/A
Altitude 34000
Route HIJ DCT PARKA DCT TLD DCT SIE DCT EDIGO DCT DGO
Aircraft A320/M-SDE3FGHIRWY/LB1

Departure

Time 2026-04-14 16:18
Airport Seville Airport (LEZL)

Arrival

Time N/A
Airport Bilbao Airport (LEBB)
Time Latitude Longitude Altitude Speed Heading
2026-04-14 15:58 37.42184 -5.89981 96 ft 0 kts 314°
2026-04-14 16:07 37.42168 -5.89959 94 ft 4 kts 307°
2026-04-14 16:07 37.42154 -5.89931 94 ft 4 kts 288°
2026-04-14 16:07 37.42152 -5.89901 93 ft 4 kts 240°
2026-04-14 16:07 37.42158 -5.89890 96 ft 1 kts 225°
2026-04-14 16:08 37.42159 -5.89889 96 ft 0 kts 225°
2026-04-14 16:09 37.42157 -5.89891 93 ft 1 kts 225°
2026-04-14 16:10 37.42148 -5.89903 94 ft 0 kts 225°
2026-04-14 16:10 37.42146 -5.89906 94 ft 2 kts 225°
2026-04-14 16:10 37.42145 -5.89906 94 ft 0 kts 225°
2026-04-14 16:10 37.42145 -5.89907 96 ft 0 kts 225°
2026-04-14 16:11 37.42141 -5.89911 94 ft 4 kts 223°
2026-04-14 16:11 37.42090 -5.89924 95 ft 10 kts 171°
2026-04-14 16:11 37.42022 -5.89893 97 ft 11 kts 158°
2026-04-14 16:12 37.41983 -5.89812 98 ft 12 kts 95°
2026-04-14 16:12 37.41981 -5.89696 97 ft 14 kts 91°
2026-04-14 16:12 37.41978 -5.89559 98 ft 17 kts 91°
2026-04-14 16:12 37.41975 -5.89402 99 ft 17 kts 90°
2026-04-14 16:13 37.41978 -5.89245 100 ft 19 kts 86°
2026-04-14 16:13 37.41984 -5.89130 101 ft 21 kts 86°
2026-04-14 16:13 37.41989 -5.88951 102 ft 21 kts 90°
2026-04-14 16:13 37.41987 -5.88764 103 ft 23 kts 91°
2026-04-14 16:14 37.41985 -5.88555 104 ft 25 kts 90°
2026-04-14 16:14 37.41985 -5.88327 104 ft 27 kts 89°
2026-04-14 16:14 37.41987 -5.88095 107 ft 23 kts 89°
2026-04-14 16:14 37.41987 -5.87887 108 ft 19 kts 91°
2026-04-14 16:15 37.41988 -5.87719 109 ft 20 kts 89°
2026-04-14 16:15 37.41988 -5.87544 110 ft 19 kts 90°
2026-04-14 16:15 37.41988 -5.87451 112 ft 6 kts 90°
2026-04-14 16:15 37.41988 -5.87393 113 ft 7 kts 92°
2026-04-14 16:16 37.41974 -5.87336 115 ft 7 kts 119°
2026-04-14 16:16 37.41930 -5.87302 113 ft 8 kts 175°
2026-04-14 16:16 37.41878 -5.87330 116 ft 9 kts 222°
2026-04-14 16:16 37.41833 -5.87409 114 ft 13 kts 238°
2026-04-14 16:17 37.41801 -5.87526 115 ft 17 kts 266°
2026-04-14 16:17 37.41799 -5.87633 114 ft 1 kts 269°
2026-04-14 16:17 37.41798 -5.87713 113 ft 34 kts 269°
2026-04-14 16:17 37.41796 -5.88345 107 ft 107 kts 270°
2026-04-14 16:18 37.41797 -5.89520 105 ft 159 kts 272°
2026-04-14 16:18 37.41909 -5.90937 639 ft 165 kts 279°
2026-04-14 16:18 37.42142 -5.92377 1296 ft 174 kts 293°
2026-04-14 16:18 37.42861 -5.93665 1794 ft 188 kts 313°
2026-04-14 16:19 37.43775 -5.94903 2362 ft 197 kts 313°
2026-04-14 16:19 37.44755 -5.96154 2909 ft 208 kts 319°
2026-04-14 16:19 37.46087 -5.97055 3274 ft 232 kts 349°
2026-04-14 16:19 37.47752 -5.96846 3817 ft 255 kts 20°
2026-04-14 16:20 37.49421 -5.95996 4743 ft 262 kts 22°
2026-04-14 16:20 37.51110 -5.95096 5734 ft 266 kts 22°
2026-04-14 16:20 37.52824 -5.94178 6712 ft 270 kts 22°
2026-04-14 16:20 37.54557 -5.93247 7660 ft 273 kts 22°
2026-04-14 16:21 37.56323 -5.92305 8582 ft 277 kts 22°
2026-04-14 16:21 37.58120 -5.91353 9486 ft 281 kts 22°
2026-04-14 16:21 37.59938 -5.90392 10283 ft 290 kts 22°
2026-04-14 16:21 37.61875 -5.89367 10603 ft 314 kts 22°
2026-04-14 16:22 37.63962 -5.88267 10849 ft 337 kts 22°
2026-04-14 16:22 37.66184 -5.87100 11259 ft 351 kts 21°
2026-04-14 16:22 37.68452 -5.85908 11968 ft 356 kts 21°
2026-04-14 16:22 37.70753 -5.84698 12750 ft 359 kts 21°
2026-04-14 16:23 37.73060 -5.83475 13513 ft 361 kts 21°
2026-04-14 16:23 37.75379 -5.82243 14214 ft 364 kts 21°
2026-04-14 16:23 37.77727 -5.80998 14861 ft 367 kts 21°
2026-04-14 16:23 37.80097 -5.79742 15510 ft 370 kts 21°
2026-04-14 16:24 37.82481 -5.78476 16136 ft 373 kts 21°
2026-04-14 16:24 37.84889 -5.77197 16754 ft 376 kts 21°
2026-04-14 16:24 37.87305 -5.75915 17349 ft 380 kts 21°
2026-04-14 16:24 37.89746 -5.74614 17963 ft 383 kts 21°
2026-04-14 16:25 37.92221 -5.73294 18567 ft 386 kts 21°
2026-04-14 16:25 37.94705 -5.71972 19157 ft 390 kts 20°
2026-04-14 16:25 37.97211 -5.70643 19730 ft 393 kts 20°
2026-04-14 16:25 37.99746 -5.69293 20287 ft 396 kts 20°
2026-04-14 16:26 38.02301 -5.67930 20824 ft 400 kts 20°
2026-04-14 16:26 38.04875 -5.66556 21336 ft 403 kts 20°
2026-04-14 16:26 38.07462 -5.65172 21822 ft 406 kts 20°
2026-04-14 16:26 38.10074 -5.63772 22301 ft 409 kts 20°
2026-04-14 16:27 38.12705 -5.62361 22770 ft 412 kts 20°
2026-04-14 16:27 38.15355 -5.60941 23216 ft 414 kts 20°
2026-04-14 16:27 38.18015 -5.59514 23659 ft 417 kts 20°
2026-04-14 16:27 38.20699 -5.58071 24089 ft 419 kts 20°
2026-04-14 16:28 38.23394 -5.56622 24486 ft 422 kts 20°
2026-04-14 16:28 38.26104 -5.55167 24901 ft 424 kts 20°
2026-04-14 16:28 38.28830 -5.53702 25329 ft 426 kts 20°
2026-04-14 16:28 38.31569 -5.52229 25750 ft 428 kts 20°
2026-04-14 16:29 38.34322 -5.50746 26184 ft 430 kts 20°
2026-04-14 16:29 38.37083 -5.49255 26578 ft 432 kts 20°
2026-04-14 16:29 38.39847 -5.47763 26990 ft 433 kts 20°
2026-04-14 16:29 38.42635 -5.46261 27387 ft 435 kts 20°
2026-04-14 16:30 38.45420 -5.44763 27777 ft 436 kts 20°
2026-04-14 16:30 38.48226 -5.43253 28152 ft 438 kts 20°
2026-04-14 16:30 38.51039 -5.41730 28549 ft 440 kts 20°
2026-04-14 16:30 38.53846 -5.40204 29079 ft 437 kts 20°
2026-04-14 16:31 38.56646 -5.38682 29639 ft 435 kts 20°
2026-04-14 16:31 38.59419 -5.37173 30190 ft 432 kts 20°
2026-04-14 16:31 38.62168 -5.35677 30756 ft 429 kts 20°
2026-04-14 16:31 38.64905 -5.34187 31276 ft 426 kts 19°
2026-04-14 16:32 38.67633 -5.32700 31778 ft 425 kts 19°
2026-04-14 16:32 38.70342 -5.31223 32284 ft 423 kts 19°
2026-04-14 16:32 38.73042 -5.29750 32803 ft 421 kts 19°
2026-04-14 16:32 38.75726 -5.28285 33295 ft 419 kts 19°
2026-04-14 16:33 38.78398 -5.26830 33800 ft 416 kts 19°
2026-04-14 16:33 38.81060 -5.25379 34101 ft 415 kts 19°
2026-04-14 16:33 38.83718 -5.23927 34170 ft 415 kts 19°
2026-04-14 16:34 38.89022 -5.21023 34174 ft 415 kts 19°
2026-04-14 16:34 38.94326 -5.18111 34183 ft 414 kts 19°
2026-04-14 16:35 38.99618 -5.15163 34184 ft 416 kts 22°
2026-04-14 16:35 39.04570 -5.11238 34183 ft 419 kts 27°
2026-04-14 16:36 39.09476 -5.07171 34183 ft 419 kts 27°
2026-04-14 16:36 39.14373 -5.03112 34182 ft 419 kts 27°
2026-04-14 16:37 39.19283 -4.99048 34185 ft 418 kts 27°
2026-04-14 16:37 39.24178 -4.94992 34184 ft 418 kts 27°
2026-04-14 16:38 39.29056 -4.90927 34182 ft 418 kts 27°
2026-04-14 16:38 39.33937 -4.86861 34183 ft 417 kts 27°
2026-04-14 16:39 39.38813 -4.82803 34184 ft 417 kts 27°
2026-04-14 16:39 39.43681 -4.78732 34185 ft 416 kts 27°
2026-04-14 16:40 39.48536 -4.74665 34181 ft 416 kts 27°
2026-04-14 16:40 39.53386 -4.70596 34181 ft 415 kts 28°
2026-04-14 16:41 39.58233 -4.66522 34180 ft 415 kts 27°
2026-04-14 16:41 39.63068 -4.62447 34178 ft 414 kts 28°
2026-04-14 16:42 39.67899 -4.58374 34182 ft 414 kts 27°
2026-04-14 16:42 39.72728 -4.54307 34180 ft 413 kts 27°
2026-04-14 16:43 39.77542 -4.50233 34179 ft 413 kts 28°
2026-04-14 16:43 39.82346 -4.46162 34182 ft 412 kts 28°
2026-04-14 16:44 39.87143 -4.42086 34181 ft 411 kts 28°
2026-04-14 16:44 39.91902 -4.38038 34180 ft 411 kts 28°
2026-04-14 16:45 39.99255 -4.32327 34177 ft 405 kts 20°
2026-04-14 16:45 40.04368 -4.29221 34174 ft 405 kts 20°
2026-04-14 16:46 40.09470 -4.26122 34172 ft 405 kts 20°
2026-04-14 16:46 40.14580 -4.23006 34173 ft 405 kts 21°
2026-04-14 16:47 40.19680 -4.19882 34170 ft 405 kts 21°
2026-04-14 16:47 40.24779 -4.16751 34168 ft 405 kts 20°
2026-04-14 16:48 40.29853 -4.13638 34163 ft 405 kts 20°
2026-04-14 16:48 40.34945 -4.10506 34161 ft 405 kts 20°
2026-04-14 16:49 40.40050 -4.07365 34160 ft 405 kts 20°
2026-04-14 16:49 40.45157 -4.04220 34159 ft 405 kts 21°
2026-04-14 16:50 40.50262 -4.01062 34160 ft 406 kts 21°
2026-04-14 16:50 40.55373 -3.97895 34167 ft 406 kts 21°
2026-04-14 16:51 40.60480 -3.94731 34183 ft 405 kts 21°
2026-04-14 16:51 40.65574 -3.91563 34191 ft 405 kts 21°
2026-04-14 16:52 40.70660 -3.88391 34195 ft 404 kts 21°
2026-04-14 16:52 40.75740 -3.85224 34197 ft 404 kts 21°
2026-04-14 16:53 40.80825 -3.82049 34191 ft 404 kts 21°
2026-04-14 16:53 40.85900 -3.78880 34190 ft 404 kts 20°
2026-04-14 16:54 40.90125 -3.76236 34195 ft 404 kts 20°
2026-04-14 16:54 40.95204 -3.73053 34188 ft 404 kts 21°
2026-04-14 16:55 41.00287 -3.69862 34187 ft 404 kts 21°
2026-04-14 16:55 41.05399 -3.66652 34185 ft 404 kts 21°
2026-04-14 16:56 41.10449 -3.63466 34189 ft 405 kts 21°
2026-04-14 16:56 41.15535 -3.60250 34187 ft 405 kts 20°
2026-04-14 16:57 41.20739 -3.57276 34186 ft 404 kts 18°
2026-04-14 16:57 41.25922 -3.54551 34185 ft 404 kts 17°
2026-04-14 16:58 41.31174 -3.51757 34186 ft 405 kts 18°
2026-04-14 16:58 41.36396 -3.48905 34190 ft 405 kts 18°
2026-04-14 16:59 41.41592 -3.46037 34187 ft 405 kts 18°
2026-04-14 16:59 41.46773 -3.43189 34189 ft 406 kts 18°
2026-04-14 17:00 41.51995 -3.40316 34197 ft 406 kts 18°
2026-04-14 17:00 41.57208 -3.37450 34203 ft 405 kts 18°
2026-04-14 17:01 41.62420 -3.34570 34216 ft 405 kts 18°
2026-04-14 17:01 41.67630 -3.31677 34208 ft 405 kts 18°
2026-04-14 17:02 41.72828 -3.28792 34203 ft 405 kts 18°
2026-04-14 17:02 41.78037 -3.25910 34209 ft 405 kts 18°
2026-04-14 17:03 41.83230 -3.23024 34201 ft 404 kts 18°
2026-04-14 17:03 41.88434 -3.20119 34202 ft 405 kts 18°
2026-04-14 17:04 41.93630 -3.17217 34210 ft 405 kts 18°
2026-04-14 17:04 41.98818 -3.14316 34216 ft 404 kts 18°
2026-04-14 17:05 42.04015 -3.11407 34198 ft 404 kts 18°
2026-04-14 17:05 42.09219 -3.08496 34027 ft 406 kts 18°
2026-04-14 17:06 42.11819 -3.07038 33789 ft 406 kts 18°
2026-04-14 17:06 42.14431 -3.05570 33545 ft 408 kts 18°
2026-04-14 17:06 42.17057 -3.04091 33288 ft 409 kts 18°
2026-04-14 17:06 42.19685 -3.02608 33032 ft 410 kts 19°
2026-04-14 17:07 42.22322 -3.01114 32786 ft 411 kts 19°
2026-04-14 17:07 42.24962 -2.99620 32535 ft 412 kts 19°
2026-04-14 17:07 42.27611 -2.98121 32285 ft 413 kts 19°
2026-04-14 17:07 42.30232 -2.96638 32036 ft 414 kts 19°
2026-04-14 17:08 42.32896 -2.95130 31788 ft 415 kts 19°
2026-04-14 17:08 42.35571 -2.93616 31534 ft 416 kts 19°
2026-04-14 17:08 42.38215 -2.92118 31286 ft 417 kts 19°
2026-04-14 17:08 42.40896 -2.90594 31035 ft 418 kts 19°
2026-04-14 17:09 42.43564 -2.89036 30782 ft 420 kts 22°
2026-04-14 17:09 42.46092 -2.86999 30539 ft 426 kts 32°
2026-04-14 17:09 42.48383 -2.84406 30285 ft 431 kts 37°
2026-04-14 17:09 42.50620 -2.81703 29987 ft 431 kts 37°
2026-04-14 17:10 42.52864 -2.79002 28935 ft 434 kts 37°
2026-04-14 17:10 42.55134 -2.76276 27775 ft 439 kts 37°
2026-04-14 17:10 42.57434 -2.73512 26609 ft 443 kts 37°
2026-04-14 17:10 42.59749 -2.70726 25414 ft 445 kts 38°
2026-04-14 17:11 42.62066 -2.67925 24233 ft 446 kts 38°
2026-04-14 17:11 42.64376 -2.65125 23044 ft 447 kts 38°
2026-04-14 17:11 42.66696 -2.62309 21837 ft 447 kts 38°
2026-04-14 17:11 42.69003 -2.59503 20937 ft 440 kts 38°
2026-04-14 17:12 42.71265 -2.56753 20019 ft 434 kts 38°
2026-04-14 17:12 42.73501 -2.54036 19121 ft 427 kts 39°
2026-04-14 17:12 42.75705 -2.51358 18212 ft 422 kts 39°
2026-04-14 17:12 42.77877 -2.48717 17263 ft 416 kts 39°
2026-04-14 17:13 42.80024 -2.46104 16330 ft 411 kts 39°
2026-04-14 17:13 42.82146 -2.43515 15419 ft 407 kts 39°
2026-04-14 17:13 42.84215 -2.40990 14529 ft 404 kts 39°
2026-04-14 17:13 42.86322 -2.38416 13640 ft 400 kts 39°
2026-04-14 17:14 42.87463 -2.37024 13169 ft 399 kts 39°
2026-04-14 17:14 42.89486 -2.34549 12382 ft 395 kts 39°
2026-04-14 17:14 42.91328 -2.32284 12143 ft 378 kts 40°
2026-04-14 17:14 42.93025 -2.30244 12028 ft 359 kts 39°
2026-04-14 17:15 42.94927 -2.28192 11913 ft 338 kts 28°
2026-04-14 17:15 42.97009 -2.27139 11779 ft 313 kts
2026-04-14 17:15 42.99088 -2.27104 11577 ft 288 kts 350°
2026-04-14 17:15 43.00980 -2.27949 11040 ft 280 kts 332°
2026-04-14 17:16 43.02498 -2.29533 10703 ft 271 kts 315°
2026-04-14 17:16 43.03800 -2.31439 10590 ft 276 kts 315°
2026-04-14 17:16 43.05120 -2.33336 10451 ft 277 kts 315°
2026-04-14 17:16 43.06462 -2.35246 10300 ft 276 kts 315°
2026-04-14 17:17 43.07782 -2.37120 10134 ft 276 kts 315°
2026-04-14 17:17 43.09102 -2.38996 9426 ft 277 kts 315°
2026-04-14 17:17 43.10444 -2.40911 8687 ft 278 kts 315°
2026-04-14 17:17 43.11775 -2.42815 7967 ft 277 kts 315°
2026-04-14 17:18 43.12991 -2.44834 7592 ft 265 kts 303°
2026-04-14 17:18 43.13815 -2.46988 7447 ft 246 kts 298°
2026-04-14 17:18 43.14466 -2.48748 7348 ft 230 kts 299°
2026-04-14 17:18 43.15161 -2.50620 7247 ft 212 kts 299°
2026-04-14 17:19 43.15819 -2.52388 7155 ft 207 kts 299°
2026-04-14 17:19 43.16474 -2.54141 6868 ft 207 kts 299°
2026-04-14 17:19 43.17128 -2.55891 6551 ft 203 kts 299°
2026-04-14 17:19 43.17768 -2.57609 6296 ft 201 kts 298°
2026-04-14 17:20 43.18406 -2.59326 6202 ft 202 kts 298°
2026-04-14 17:20 43.19046 -2.61054 5672 ft 207 kts 298°
2026-04-14 17:20 43.19708 -2.62848 5127 ft 213 kts 298°
2026-04-14 17:20 43.20373 -2.64632 4731 ft 206 kts 298°
2026-04-14 17:21 43.21020 -2.66392 4403 ft 201 kts 297°
2026-04-14 17:21 43.21645 -2.68085 4106 ft 199 kts 298°
2026-04-14 17:21 43.22266 -2.69764 3799 ft 196 kts 297°
2026-04-14 17:21 43.22874 -2.71408 3521 ft 196 kts 297°
2026-04-14 17:22 43.23496 -2.73090 3211 ft 199 kts 297°
2026-04-14 17:22 43.24121 -2.74785 2913 ft 200 kts 297°
2026-04-14 17:22 43.24750 -2.76489 2614 ft 201 kts 297°
2026-04-14 17:22 43.25361 -2.78148 2338 ft 186 kts 297°
2026-04-14 17:23 43.25897 -2.79600 2063 ft 168 kts 297°
2026-04-14 17:23 43.26391 -2.80943 1844 ft 146 kts 297°
2026-04-14 17:23 43.26823 -2.82116 1620 ft 134 kts 296°
2026-04-14 17:23 43.27231 -2.83226 1419 ft 130 kts 297°
2026-04-14 17:24 43.27635 -2.84323 1227 ft 128 kts 297°
2026-04-14 17:24 43.28034 -2.85406 1039 ft 127 kts 297°
2026-04-14 17:24 43.28437 -2.86483 827 ft 127 kts 297°
2026-04-14 17:24 43.28847 -2.87558 653 ft 127 kts 297°
2026-04-14 17:25 43.29242 -2.88643 463 ft 129 kts 295°
2026-04-14 17:25 43.29627 -2.89753 266 ft 128 kts 296°
2026-04-14 17:25 43.29953 -2.90642 154 ft 128 kts 296°
2026-04-14 17:25 43.30204 -2.91330 122 ft 105 kts 296°
2026-04-14 17:26 43.30302 -2.91594 122 ft 75 kts 297°